115  
ASUS43 KLSX 171907  
RWRMO  
 
WEATHER SUMMARY FOR MISSOURI  
NATIONAL WEATHER SERVICE SPRINGFIELD MO  
200 PM CDT TUE SEP 17 2019  
 
NOTE: "FAIR" INDICATES FEW OR NO CLOUDS BELOW 12,000 FEET WITH NO  
SIGNIFICANT WEATHER AND/OR S TO VISIBILITY
.  
CURRENT SKY AND/OR WEATHER CONDITIONS ARE NOT AVAILABLE FOR  
CHILLICOTHE AND FARMINGTON.  
 
MOZ001>031-035>038-043-044-053-054-172000-   
..NORTHERN AND WESTERN MISSOURI
 
 
 
CITY SKY/WX TMP DP RH WIND PRES REMARKS
 
KANSAS CTY INT PTSUNNY 88 72 58 S10 30.02F HX 94  
KANSAS C DTWN SUNNY 92 67 43 SW10 30.00F HX 95  
LEE'S SUMMIT SUNNY 90 69 50 SW12 30.03F HX 94  
ST JOSEPH SUNNY 90 69 50 S13G20 29.99F HX 94  
CHILLICOTHE N/A 87 70 56 VRB3 30.03F HX 92  
KIRKSVILLE SUNNY 90 70 51 SE8 30.06F HX 95  
 

 
MOZ066>068-077>081-088>096-101>105-172000-   
..SOUTHWEST MISSOURI
 
 
 
CITY SKY/WX TMP DP RH WIND PRES REMARKS
 
SPRINGFIELD SUNNY 92 64 39 SE10 30.06F HX 93  
JOPLIN MOSUNNY 92 67 43 VRB5 30.04F HX 95  
BRANSON MOSUNNY 91 63 38 S10 30.09F HX 92  
 

 
MOZ032>034-039>042-045>050-055>058-069>072-172000-   
..CENTRAL MISSOURI
 
 
 
CITY SKY/WX TMP DP RH WIND PRES REMARKS
 
COLUMBIA SUNNY 90 69 50 S3 30.06F HX 94  
JEFFERSON CITY SUNNY 92 66 42 S6 30.04F HX 94  
ROLLA MOSUNNY 90 65 43 SE3 30.08F HX 92  
SEDALIA SUNNY 89 68 49 S10 30.05F HX 93  
WHITEMAN AFB PTSUNNY 91 70 49 S9 30.00F HX 96  
WARRENSBURG SUNNY 86 66 51 SE8 30.03F  
OSAGE BEACH SUNNY 92 65 40 S8 30.06F HX 94  
 

 
MOZ051-052-059>065-172000-   
..EAST CENTRAL MISSOURI
 
 
 
CITY SKY/WX TMP DP RH WIND PRES REMARKS
 
ST LOUIS INTL PTSUNNY 88 70 55 E6 30.07F HX 93  
SPIRIT OF STL MOSUNNY 89 73 59 CALM 30.04F HX 97  
ST CHARLES N/A N/A N/A N/A MISG 30.05F  
 

 
MOZ072>076-082>087-097>100-106>115-172000-   
..SOUTH CENTRAL AND SOUTHEAST MISSOURI
 
 
 
CITY SKY/WX TMP DP RH WIND PRES REMARKS
 
CAPE GIRARDEAU FAIR 93 70 46 CALM 30.02F HX 99  
FARMINGTON MOSUNNY 93 69 45 W5 30.07F HX 98  
POPLAR BLUFF FAIR 94 67 41 VRB3 30.02F HX 97  
WEST PLAINS SUNNY 91 63 39 SE6 30.09F HX 92  
 

 
 
 
CLICK HERE TO GO TO PREVIOUS BULLETINS.

The Nexlab MO Page Main Text Page